Weather in Krasnotalovskiy

Russia / Volgograd Oblast     50°47′12″N   43°30′29″E
temp.,
°C
wind,
m/s
gust,
m/s
humid.,
%
clouds,
%
prec.,
mm/h
press.,
hPa
HPBL,
m
16 june, wed
wed1600:00+16w33915 0.0 100833
03:00+16wsw34945 0.0 100961
06:00+18w359233 0.0 1009186
09:00+22w347487 0.0 1010629
12:00+25w45625 0.0 10111185
15:00+26w56565 0.1 10111664
18:00+25wnw46680 0.1 1011486
21:00+19nnw33870 0.1 101230
17 june, thu
thu1700:00+18n22910 0.0 101323
03:00+17nne34910 0.0 101460
06:00+19ne49871 0.0 1014248
09:00+24ne6870100 0.0 1015742
12:00+26ne67603 0.0 10161269
15:00+26ne77589 0.0 10171434
18:00+23ne69680 0.0 1018810
21:00+17ene310810 0.0 1020218
18 june, fri
fri1800:00+16ne613820 0.0 1020296
03:00+15ne511810 0.0 1021258
06:00+16ne611820 0.0 1022334
09:00+20ene67670 0.0 1024866
12:00+23ene78550 0.0 10231402
15:00+23ene78532 0.0 10231430
18:00+21ene696420 0.0 1024906
21:00+16ene410800 0.0 1025220
19 june, sat
sat1900:00+14ene410800 0.0 1026208
03:00+12ene410750 0.0 1027179
06:00+14ene410760 0.0 1028290
09:00+19e67590 0.0 1028762
12:00+22e56490 0.0 10271301
15:00+24e56460 0.0 10261256
18:00+22ene47600 0.0 1025456
21:00+16ene47800 0.0 1025106
20 june, sun
sun2000:00+15ene47760 0.0 1025103
03:00+14ene46780 0.0 102592
06:00+16ene48780 0.0 1025211
09:00+22e57580 0.0 1025647
12:00+26e67470 0.0 10241171
15:00+27e564438 0.0 10231364
18:00+25e3663100 0.0 1022193
21:00+21e497099 0.0 1022145